Weather History for Hartford, CT

Change the Weather History Date:

Saturday, April 13, 2013

  Actual Average Record
Temperature  
Mean Temperature 46 °F -  
Max Temperature 55 °F 58 °F 86 °F (1977)
Min Temperature 37 °F 33 °F 24 °F (1976)
Degree Days  
Heating Degree Days 20    
Moisture  
Dew Point 35 °F    
Average Humidity 71    
Maximum Humidity 96    
Minimum Humidity 43    
Precipitation  
Precipitation 0.06 in - - ()
Sea Level Pressure  
Sea Level Pressure 29.85 in    
Wind  
Wind Speed 9 mph (NNW)    
Max Wind Speed 17 mph    
Max Gust Speed 18 mph    
Visibility 10 miles    
Events Rain    
Averages and records for this station are not official NWS values.
T = Trace of Precipitation, MM = Missing Value Source: NWS Daily Summary

Daily Weather History Graph

Daily Weather History Graph

Search for Another Location

Airport:

Trip Planner

Search our weather history database for the weather conditions in past years. The results will help you decide how hot, cold, wet, or windy it might be!

Date:

Astronomy

Apr. 13, 2013 Rise Set
Actual Time 6:13 AM EDT 7:29 PM EDT
Civil Twilight 5:44 AM EDT 7:58 PM EDT
Nautical Twilight 5:10 AM EDT 8:32 PM EDT
Astronomical Twilight 4:33 AM EDT 9:09 PM EDT
Moon 8:00 AM EDT (4/13) 10:53 PM EDT (4/13)
Length of Visible Light 14h 13m
Length of Day
13h 16m
Waxing Crescent, 10% of the Moon is Illuminated
Apr 13
Waxing Crescent
Apr 18
First Quarter
Apr 25
Full
May 2
Last Quarter
May 9
New

Hourly Weather History & Observations

Time (EDT) Temp. Windchill Dew Point Humidity Pressure Visibility Wind Dir Wind Speed Gust Speed Precip Events Conditions
12:53 AM 37.9 °F 30.5 °F 36.0 °F 93% 29.81 in 8.0 mi North 11.5 mph - 0.00 in Rain Light Rain
1:53 AM 37.0 °F 27.4 °F 36.0 °F 96% 29.75 in 6.0 mi NNE 17.3 mph - 0.04 in Rain Light Rain
2:53 AM 37.0 °F 29.8 °F 35.1 °F 93% 29.78 in 10.0 mi North 10.4 mph - 0.02 in   Overcast
3:30 AM 37.4 °F 29.8 °F 35.6 °F 93% 29.79 in 10.0 mi North 11.5 mph 18.4 mph N/A   Overcast
3:53 AM 37.0 °F 30.4 °F 35.1 °F 93% 29.80 in 10.0 mi North 9.2 mph - N/A   Overcast
4:53 AM 37.9 °F 32.7 °F 34.0 °F 86% 29.82 in 10.0 mi North 6.9 mph - N/A   Overcast
5:53 AM 37.9 °F 30.9 °F 34.0 °F 86% 29.83 in 10.0 mi NNW 10.4 mph - N/A   Overcast
6:01 AM 37.4 °F 30.8 °F 33.8 °F 87% 29.84 in 10.0 mi NNW 9.2 mph - N/A   Overcast
6:53 AM 37.9 °F 32.1 °F 34.0 °F 86% 29.83 in 10.0 mi North 8.1 mph - N/A   Overcast
7:53 AM 39.0 °F 32.3 °F 34.0 °F 82% 29.86 in 10.0 mi North 10.4 mph - N/A   Overcast
8:44 AM 41.0 °F 36.4 °F 35.6 °F 81% 29.87 in 10.0 mi North 6.9 mph - N/A   Overcast
8:53 AM 39.9 °F 36.7 °F 34.0 °F 79% 29.87 in 10.0 mi NNE 4.6 mph - N/A   Overcast
9:53 AM 44.1 °F 42.5 °F 36.0 °F 73% 29.87 in 10.0 mi Variable 3.5 mph - N/A   Overcast
10:53 AM 45.0 °F - 37.0 °F 74% 29.89 in 10.0 mi Calm Calm - N/A   Overcast
11:53 AM 48.9 °F - 35.1 °F 59% 29.88 in 10.0 mi Variable 5.8 mph - N/A   Overcast
12:53 PM 51.1 °F - 34.0 °F 52% 29.86 in 10.0 mi NNW 6.9 mph - N/A   Mostly Cloudy
1:53 PM 53.1 °F - 34.0 °F 48% 29.85 in 10.0 mi NNW 8.1 mph 17.3 mph N/A   Overcast
2:53 PM 54.0 °F - 33.1 °F 45% 29.85 in 10.0 mi NNW 9.2 mph - N/A   Mostly Cloudy
3:53 PM 54.0 °F - 33.1 °F 45% 29.84 in 10.0 mi NW 5.8 mph - N/A   Overcast
4:53 PM 54.0 °F - 32.0 °F 43% 29.86 in 10.0 mi West 6.9 mph - N/A   Overcast
5:53 PM 54.0 °F - 32.0 °F 43% 29.87 in 10.0 mi West 3.5 mph - N/A   Overcast
6:53 PM 53.1 °F - 35.1 °F 50% 29.85 in 10.0 mi SE 3.5 mph - N/A   Overcast
8:53 PM 50.0 °F - 36.0 °F 59% 29.91 in 10.0 mi South 3.5 mph - N/A   Overcast
9:53 PM 48.9 °F - 37.0 °F 64% 29.93 in 10.0 mi South 4.6 mph - N/A   Overcast
10:53 PM 50.0 °F - 35.1 °F 57% 29.94 in 10.0 mi SSW 4.6 mph - N/A   Clear
11:53 PM 46.0 °F 43.9 °F 36.0 °F 68% 29.94 in 10.0 mi South 4.6 mph - N/A   Mostly Cloudy